Home   Weather   Morden   Past weeks

Flag for Canada Past Weather in Morden, Manitoba, Canada — Yesterday and Last 2 Weeks

Now
28 °F

Chilly.


Feels Like: 17 °F
Forecast: 26 / 38 °F
Wind: 14 mph from Northeast

Location: Morden CDA CS

Current Time: Apr 26, 2017 at 9:13:55 am

Latest Report: Apr 26, 2017 at 8:00 am


Visibility: N/A

Pressure: 29.98 "Hg

Humidity: 75%

Dew Point: 21 °F

Location of MordenLocation

Past Weather in Morden — Graph

°F

Morden Temperature Yesterday

Maximum temperature yesterday: 41 °F (at 6:00 pm)
Minimum temperature yesterday: 29 °F (at 6:00 am)
Average temperature yesterday: 34 °F

High & Low Weather Summary for the Past Weeks

 TemperatureHumidityPressure
High68 °F (Apr 14, 5:00 pm)100% (Apr 21, 4:00 am)30.36 "Hg (Apr 21, 4:00 am)
Low20 °F (Apr 17, 7:00 am)23% (Apr 11, 5:00 pm)29.59 "Hg (Apr 14, 8:00 pm)
Average41 °F69%30.08 "Hg
* Reported Apr 11 7:00 am — Apr 26 7:00 am, Morden, Weather by CustomWeather, © 2017

Note: Actual official high and low records may vary slightly from our data, if they occured in-between our weather recording intervals... More about our weather records

Advertising

Morden Weather History for the Previous 24 Hours

Scroll right to see more
 ConditionsComfort  
Time TempWeatherWind HumidityBarometerVisibility
7:00 am
Wed, Apr 26
28 °FChilly.10 mph79%29.97 "HgN/A
6:00 am29 °FChilly.13 mph77%29.98 "HgN/A
5:00 am29 °FChilly.9 mph81%29.98 "HgN/A
4:00 am30 °FChilly.10 mph78%29.98 "HgN/A
3:00 am30 °FChilly.8 mph79%29.99 "HgN/A
2:00 am30 °FChilly.6 mph81%30.01 "HgN/A
1:00 am31 °FChilly.7 mph76%30.02 "HgN/A
12:00 am32 °FChilly.7 mph75%30.03 "HgN/A
11:00 pm
Tue, Apr 25
34 °FChilly.7 mph69%30.03 "HgN/A
10:00 pm36 °FChilly.9 mph65%30.01 "HgN/A
9:00 pm38 °FChilly.12 mph61%30.01 "HgN/A
8:00 pm40 °FQuite cool.14 mph54%29.99 "HgN/A
7:00 pm41 °FQuite cool.16 mph53%29.98 "HgN/A
6:00 pm41 °FQuite cool.17 mph53%29.97 "HgN/A
5:00 pm40 °FQuite cool.20 mph55%29.96 "HgN/A
4:00 pm40 °FQuite cool.21 mph57%29.95 "HgN/A
3:00 pm38 °FChilly.22 mph59%29.96 "HgN/A
2:00 pm35 °FChilly.20 mph70%29.97 "HgN/A
1:00 pm33 °FChilly.20 mph73%29.98 "HgN/A
12:00 pm32 °FChilly.20 mph75%29.97 "HgN/A
11:00 am32 °FChilly.21 mph74%29.95 "HgN/A
10:00 am31 °FChilly.20 mph77%29.96 "HgN/A
9:00 am30 °FChilly.17 mph77%29.95 "HgN/A
Weather by CustomWeather, © 2017

See weather overviewHow to use our weather pages